Regional Weather Roundup
Issued by NWS Sterling, VA

Home | Current Version | Previous Version | Graphics & Text | Print | Product List | Glossary On
Versions: 1 2 3 4 5 6 7 8 9 10 11 12 13 14 15 16 17 18 19 20 21 22 23 24 25 26 27 28 29 30 31 32 33 34 35 36 37 38 39 40 41 42 43 44 45 46 47 48 49 50
155
ASUS41 KLWX 120910
RWRLWX

REGIONAL WEATHER ROUNDUP
NATIONAL WEATHER SERVICE BALTIMORE MD/WASHINGTON DC
400 AM EST FRI FEB 12 2016

Note: "FAIR" indicates few or no clouds below 12,000 feet
with no significant weather and/or obstructions to visibility.
 TC=TEMPERATURE CELSIUS

 * =Non NWS site. Station does not report precipitation (e.g. rain,
    snow, etc.), thunder, or fog.

DCZ001-MDZ009-015-VAZ040>042-051-053>054-121000-
WASHINGTON METRO

CITY           SKY/WX    TMP DP  RH WIND       PRES   REMARKS
WASHINGTON NAT MOCLDY    20   5  52 N7        30.33F
DULLES         FAIR      17   5  59 NW5       30.30F
ANDREWS AFB    CLOUDY    20   2  47 NW7       30.29S
FT BELVOIR     FAIR      16   8  69 CALM      30.32F
QUANTICO       FAIR      20  11  68 NW5       30.35S
COLLEGE PARK*  FAIR      21   3  45 CALM      30.31F
LEESBURG*      FAIR      19  10  68 NW5       30.29F
MANASSAS*      FAIR      16  12  86 CALM      30.32S
GAITHERSBURG*  PTCLDY    14   0  52 CALM      30.31F

$$

MDZ006>007-011-014-121000-
BALTIMORE METRO

CITY           SKY/WX    TMP DP  RH WIND       PRES   REMARKS
BWI AIRPORT    PTCLDY    16   3  56 W5        30.31F
MD SCIENCE CTR   N/A     19   1  45 MISG      30.26F
MARTIN STATE   CLEAR     18  10  73 CALM      30.33F
ANNAPOLIS      PTCLDY    20   4  50 NW5       30.32S
FORT MEADE*    CLEAR     12   9  85 CALM      30.33F

$$

MDZ012-015-019>023-121000-
MARYLAND EASTERN SHORE

CITY           SKY/WX    TMP DP  RH WIND       PRES   REMARKS
OCEAN CITY     CLEAR     19   4  51 NW3       30.32S
SALISBURY      CLEAR     18   5  57 VRB3      30.32S
BAY BRIDGE AP*   N/A     21   1  42 NW7       30.32S
CAMBRIDGE*     PTCLDY    21   3  45 NW7       30.31F
EASTON*        PTCLDY    21   6  51 NW7       30.35R

$$

MDZ017>025-121000-
SOUTHERN MARYLAND

CITY           SKY/WX    TMP DP  RH WIND       PRES   REMARKS
PATUXENT RIVER PTCLDY    21   3  45 NW13      30.33S WCI   9
ST INIGOES     PTCLDY    21   4  47 NW3       30.33S
LEONARDTOWN*   PTCLDY    19   5  53 CALM      30.34S

$$

MDZ003>005-121000-
NORTH CENTRAL MARYLAND

CITY           SKY/WX    TMP DP  RH WIND       PRES   REMARKS
FREDERICK*     PTCLDY    16   3  57 W6        30.33S
HAGERSTOWN APT CLEAR     14  -2  49 W5        30.25F
WESTMINSTER*   PTCLDY    12   5  73 W3        30.24S

$$

MDZ501>502-121000-
WESTERN MARYLAND

CITY           SKY/WX    TMP DP  RH WIND       PRES   REMARKS
OAKLAND*       PTCLDY     3   1  92 SW3       30.03F
CUMBERLAND*    PTCLDY    12   9  85 CALM      30.30S

$$

VAZ025>031-121000-
SHENANDOAH VALLEY

CITY           SKY/WX    TMP DP  RH WIND       PRES   REMARKS
WINCHESTER*    FAIR      18   5  57 CALM      30.26F
FRONT ROYAL*   FAIR      18   3  53 CALM      30.26F
LURAY*         FAIR      12   9  85 CALM      30.25F
NEW MARKET*    FAIR      11   4  73 CALM      30.24F
STAUNTON*      FAIR      15  10  80 CALM      30.25S
WAYNESBORO*    PTSUNNY   13   3  65 CALM      30.21S

$$

WVZ021-048>050-054>055-121000-
EASTERN WEST VIRGINIA PANHANDLE

CITY           SKY/WX    TMP DP  RH WIND       PRES   REMARKS
MARTINSBURG    FAIR      10   2  69 S3        30.28S
PETERSBURG*    FAIR      11   6  78 CALM      30.26S

$$

VAZ036>039-050-121000-
CENTRAL FOOTHILLS

CITY           SKY/WX    TMP DP  RH WIND       PRES   REMARKS
CHARLOTTESVILL FAIR      19   6  57 CALM      30.27F
CULPEPER*      FAIR      15  11  83 CALM      30.31F
ORANGE*        FAIR      19  12  73 CALM      30.31S
GORDONSVILLE*  FAIR      18  10  73 CALM      30.29S
WARRENTON*     FAIR      17  14  88 CALM      30.29F

$$

VAZ055>057-121000-
NORTH AND CENTRAL PIEDMONT

CITY           SKY/WX    TMP DP  RH WIND       PRES   REMARKS
FREDERICKSBRG* FAIR      19   9  67 CALM      30.32F
STAFFORD*      FAIR      13  10  85 CALM      30.36F

$$

NCZ024-NYZ072-PAZ021-071-VAZ022-071-121000-
OTHER REGIONAL OBSERVATIONS

CITY           SKY/WX    TMP DP  RH WIND       PRES   REMARKS
NEW YORK CITY  CLEAR     17  -2  43 W8G16     30.25R WCI   7
PHILADELPHIA   CLEAR     18   0  45 W9        30.30S WCI   7
PITTSBURGH     CLOUDY     5  -2  72 CALM      30.17F
ROANOKE        CLOUDY    21   6  52 CALM      30.25R
RICHMOND       MOCLDY    20   8  60 E5        30.32F
RALEIGH        MOCLDY    28   5  37 E10       30.29F WCI  19

$$

ANZ530>537-121000-
MARINE OBSERVATIONS

STATION/POSITION TIME  TEMP    WIND        PRES
                       AIR SEA DIR/SP/G
                 (UTC) (F)     (DEG/KT/KT) (MB)
THOMAS PT LIGHT  0900   21 36  320/ 10/ 11 1027.5S
BALT KEY BRIDGE  0800   21     260/ 11/ 12 1026.8F
COVE POINT       0800   22     360/ 15/ 20 1027.6F
LEWISETTA        0800   24 37  360/ 10/ 13 1027.0S
SOLOMONS ISLAND  0800   23 39  350/  8/ 14   N/A
PINEY POINT      0800           10/ 10/ 13   N/A

$$





USA.gov is the U.S. government's official web portal to all federal, state and local government web resources and services.